BREEZE-KM DEB, 41718

Orbit data source: Space-Track

BREEZE-KM DEB, 41718 is space debris in LEO originally from a launch on Tue, 31 Mar 2015 UTC launched from the Plesetsk Missile And Space Complex (PKMTR). Debris objects in space refer to the collection of defunct objects orbiting the Earth. Examples of debris include non-operational satellites, rocket bodies, and fragments generated from explosions, collisions, or faulty payload assembly.

Loading next visibility...
Identifier
41718, 2015-020F
Orbit
LEO
Country
Flag of CISCIS
Related business
Manufacturer
Khrunichev
Mission
Spacecraft
Bus & Motor
Unknown
Mass
Unknown
Launch date (UTC)
2015-03-31 (11 years ago)
Launch vehicle
Unknown
Launch site
Plesetsk Missile And Space Complex (PKMTR)
Object type
Payload
Rocket body
Debris
Shape & HBR
Unknown shape, 0.1 m
Radar Cross Section
Medium (>0.1 m² and <1 m²)

Expand to show TLE details & history
Last TLE update: 23 hours ago

TLE from 23 hours ago
0 BREEZE-KM DEB
1 41718U 15020F   26174.21248743  .00000020  00000-0  31096-4 0  9995
2 41718  82.4881 148.2817 0227577 220.4741 137.9248 12.91313357520663
Epoch: 2026-06-23T05:05Z
TLE epoch observation values (Epoch: 2026-06-23T05:05:58.913Z)
Latitude
-0.00001°
Longitude
160.39894°
Altitude
1,430.487 km
Speed
7.085 km/s
True Right ascension
09h 53m 07s
True Declination
0° 00' 00"
Sunlit
Object was in daylight at epoch
Visualization orbit readout
Latitude
Unknown
Longitude
Unknown
Altitude
Unknown
Speed
Unknown
Apparent Right ascension
Unknown
Apparent Declination
Unknown
Sunlit
N/A
Visualization observer readout
Local Sidereal Time
15:37:58
Azimuth
Unknown
Elevation
Unknown
Doppler factor
Unknown
Orbital elements
Apogee altitude
1,468.188 km
Perigee altitude
1,119.006 km
Semi-major axis
7,671.734 km
Eccentricity
0.02276
Inclination
82.4881°
RAAN
148.2817°
Arg. of periapsis
220.4741°
True anomaly
139.63591°
Mean anomaly
137.9248°
Eccentric anomaly
138.78395°
Mean motion
3.23 °/min
Orbital period
111.46 mins
BSTAR
0.000031096
Loading maneuver chart data...
Computing Atmospheric mass density...
Loading historical data...
Loading historical data...
Loading historical data...
Loading historical data...
Loading historical data...
Loading historical data...
Loading historical data...

Documentation

Showing up to 5 results
|